FW9086 Weather Reports


Display with metric or nautical units.
time (UTC)temp
F
wind
direction
speed
MPH
gust
MPH
rain 1hr
in
rain 24hr
in
rain mn
in
humidity
%
barometer
mb
20260502220058 52 133 0.0 0.0 0.00 0.00 0.00 41 1015.5
20260502215555 52 80 0.0 0.0 0.00 0.00 0.00 46 1015.6
20260502215052 52 99 0.0 0.0 0.00 0.00 0.00 42 1015.6
20260502214549 52 42 0.0 0.0 0.00 0.00 0.00 45 1015.4
20260502214047 51 78 0.0 0.0 0.00 0.00 0.00 45 1015.4
20260502213544 51 167 0.0 0.0 0.00 0.00 0.00 48 1015.5
20260502213041 51 66 0.0 0.0 0.00 0.00 0.00 44 1015.4
20260502212540 52 117 0.0 0.0 0.00 0.00 0.00 52 1015.5
20260502212037 52 129 0.0 0.0 0.00 0.00 0.00 45 1015.6
20260502211532 52 133 0.0 0.0 0.00 0.00 0.00 45 1015.4
20260502211030 53 202 0.0 0.0 0.00 0.00 0.00 46 1015.5
20260502210527 54 25 0.0 0.0 0.00 0.00 0.00 41 1015.4
20260502210024 53 44 0.0 0.0 0.00 0.00 0.00 44 1015.4
20260502205521 51 91 0.0 0.0 0.00 0.00 0.00 45 1015.4
20260502205018 52 36 0.0 0.0 0.00 0.00 0.00 46 1015.6
20260502204515 54 346 0.0 1.0 0.00 0.00 0.00 44 1015.4
20260502204013 55 138 0.0 0.0 0.00 0.00 0.00 43 1015.5
20260502203509 56 165 0.0 0.0 0.00 0.00 0.00 47 1015.6
20260502203006 55 227 0.0 0.0 0.00 0.00 0.00 47 1015.5
20260502202502 52 345 0.0 0.0 0.00 0.00 0.00 47 1015.6
20260502202001 53 337 0.0 0.0 0.00 0.00 0.00 41 1015.6
20260502201456 55 33 0.0 0.0 0.00 0.00 0.00 41 1015.6
20260502200953 55 41 0.0 0.0 0.00 0.00 0.00 40 1015.5
20260502200449 54 107 0.0 0.0 0.00 0.00 0.00 46 1015.8
20260502195947 56 36 0.0 0.0 0.00 0.00 0.00 40 1015.7
20260502195444 57 20 0.0 0.0 0.00 0.00 0.00 40 1015.5
20260502194940 57 42 0.0 0.0 0.00 0.00 0.00 41 1015.6
20260502194437 58 242 0.0 1.0 0.00 0.00 0.00 39 1015.6
20260502193933 57 26 0.0 0.0 0.00 0.00 0.00 43 1016.0
20260502193430 56 170 0.0 0.0 0.00 0.00 0.00 48 1015.9
20260502192926 58 65 0.0 0.0 0.00 0.00 0.00 43 1015.9
20260502192423 58 164 0.0 0.0 0.00 0.00 0.00 46 1015.8
20260502191920 57 346 0.0 0.0 0.00 0.00 0.00 46 1016.0
20260502191418 58 273 0.0 0.0 0.00 0.00 0.00 49 1015.8
20260502190915 56 46 0.0 0.0 0.00 0.00 0.00 46 1016.1
20260502190412 57 256 0.0 0.0 0.00 0.00 0.00 48 1016.0
20260502185908 56 86 0.0 0.0 0.00 0.00 0.00 48 1016.0
20260502185404 55 207 0.0 1.0 0.00 0.00 0.00 48 1016.1
20260502184901 56 272 0.0 0.0 0.00 0.00 0.00 52 1016.4
20260502184356 55 3 1.0 5.0 0.00 0.00 0.00 43 1016.2
20260502183853 58 58 0.0 0.0 0.00 0.00 0.00 40 1016.3
20260502183349 57 182 0.0 0.0 0.00 0.00 0.00 50 1016.3
20260502182844 55 136 0.0 0.0 0.00 0.00 0.00 47 1016.3
20260502182340 57 279 3.0 3.0 0.00 0.00 0.00 41 1016.2
20260502181837 55 30 0.0 0.0 0.00 0.00 0.00 44 1016.4
20260502181336 56 24 0.0 0.0 0.00 0.00 0.00 44 1016.4
20260502180833 57 312 0.0 0.0 0.00 0.00 0.00 47 1016.4
20260502180330 56 14 0.0 1.0 0.00 0.00 0.00 46 1016.5
20260502170249 55 330 0.0 0.0 0.00 0.00 0.00 43 1017.0
20260502164237 54 128 0.0 0.0 0.00 0.00 0.00 43 1017.2
20260502163732 53 234 0.0 0.0 0.00 0.00 0.00 46 1017.1
20260502163229 54 82 0.0 0.0 0.00 0.00 0.00 44 1017.3
20260502162726 54 71 0.0 0.0 0.00 0.00 0.00 46 1017.1
20260502162223 55 79 0.0 0.0 0.00 0.00 0.00 43 1017.2
20260502161720 56 221 0.0 0.0 0.00 0.00 0.00 42 1017.1
20260502161216 55 235 1.0 1.0 0.00 0.00 0.00 42 1017.2
20260502160715 55 267 2.0 2.0 0.00 0.00 0.00 39 1017.2
20260502160213 54 88 0.0 0.0 0.00 0.00 0.00 41 1017.2
20260502152127 52 113 0.0 0.0 0.00 0.00 0.00 45 1017.2
20260502151624 53 122 0.0 0.0 0.00 0.00 0.00 43 1017.1
20260502151121 51 84 0.0 0.0 0.00 0.00 0.00 48 1016.8
20260502150618 51 5 1.0 2.0 0.00 0.00 0.00 42 1016.8
20260502150114 52 163 0.0 0.0 0.00 0.00 0.00 47 1017.1
20260502130503 44 96 0.0 0.0 0.00 0.00 0.00 58 1016.6
20260502123446 41 130 0.0 0.0 0.00 0.00 0.00 61 1016.5
20260502122943 41 133 0.0 0.0 0.00 0.00 0.00 59 1016.6
20260502122439 41 91 0.0 0.0 0.00 0.00 0.00 64 1016.7
20260502121937 41 118 0.0 0.0 0.00 0.00 0.00 67 1016.3
20260502121434 41 128 0.0 0.0 0.00 0.00 0.00 70 1016.3
20260502120932 41 135 0.0 0.0 0.00 0.00 0.00 76 1016.3
20260502120428 41 140 0.0 0.0 0.00 0.00 0.00 79 1016.1
20260502115925 41 126 0.0 0.0 0.00 0.00 0.00 79 1016.1
20260502115422 41 109 0.0 0.0 0.00 0.00 0.00 78 1016.0
20260502114918 41 40 0.0 0.0 0.00 0.00 0.00 82 1016.0
20260502114415 41 94 0.0 0.0 0.00 0.00 0.00 82 1015.9
20260502113912 41 74 0.0 0.0 0.00 0.00 0.00 82 1015.9
20260502113410 40 120 0.0 0.0 0.00 0.00 0.00 81 1015.7
20260502112909 40 84 0.0 0.0 0.00 0.00 0.00 81 1015.8
20260502112405 40 61 0.0 0.0 0.00 0.00 0.00 81 1015.7
20260502111903 40 53 0.0 0.0 0.00 0.00 0.00 81 1015.8
20260502111400 40 104 0.0 0.0 0.00 0.00 0.00 80 1015.6
20260502110857 40 89 0.0 0.0 0.00 0.00 0.00 80 1015.7
20260502110355 41 91 0.0 0.0 0.00 0.00 0.00 80 1015.5
20260502105852 41 133 0.0 0.0 0.00 0.00 0.00 79 1015.9
20260502105349 41 110 0.0 0.0 0.00 0.00 0.00 79 1015.6
20260502104847 41 93 0.0 0.0 0.00 0.00 0.00 79 1015.9
20260502104344 41 111 0.0 0.0 0.00 0.00 0.00 79 1015.7
20260502103841 41 128 0.0 0.0 0.00 0.00 0.00 80 1015.7
20260502103339 41 132 0.0 0.0 0.00 0.00 0.00 80 1016.0
20260502102836 40 133 0.0 0.0 0.00 0.00 0.00 80 1015.8
20260502102332 40 124 0.0 0.0 0.00 0.00 0.00 83 1015.7
20260502101830 40 137 0.0 0.0 0.00 0.00 0.00 85 1015.9
20260502101328 39 132 0.0 0.0 0.00 0.00 0.00 85 1015.8
20260502100826 39 144 0.0 0.0 0.00 0.00 0.00 85 1015.6
20260502100325 39 144 0.0 0.0 0.00 0.00 0.00 87 1015.9
20260502091258 39 140 0.0 0.0 0.00 0.00 0.00 90 1015.7
20260502090756 39 136 0.0 0.0 0.00 0.00 0.00 85 1015.8
20260502090252 39 136 0.0 0.0 0.00 0.00 0.00 87 1015.5
20260502071153 40 111 0.0 0.0 0.00 0.00 0.00 77 1015.5
20260502070651 40 110 0.0 0.0 0.00 0.00 0.00 79 1015.4
20260502070149 41 91 0.0 0.0 0.00 0.00 0.00 79 1015.6
20260502065647 40 130 0.0 0.0 0.00 0.00 0.00 78 1015.7
20260502065144 40 130 0.0 0.0 0.00 0.00 0.00 79 1015.8
20260502064643 41 130 0.0 0.0 0.00 0.00 0.00 80 1015.7
20260502064139 41 130 0.0 0.0 0.00 0.00 0.00 80 1015.6
20260502063637 41 128 0.0 0.0 0.00 0.00 0.00 80 1015.8
20260502063135 41 136 0.0 0.0 0.00 0.00 0.00 80 1015.7
20260502062632 41 134 0.0 0.0 0.00 0.00 0.00 79 1015.7
20260502062130 41 136 0.0 0.0 0.00 0.00 0.00 78 1015.8
20260502061628 41 133 0.0 0.0 0.00 0.00 0.00 79 1015.9
20260502061125 41 134 0.0 0.0 0.00 0.00 0.00 77 1015.9
20260502060625 41 133 0.0 0.0 0.00 0.00 0.00 78 1015.8
20260502060122 41 129 0.0 0.0 0.00 0.00 0.00 78 1015.9
20260502055620 41 121 0.0 0.0 0.00 0.00 0.00 80 1015.8
20260502055117 42 117 0.0 0.0 0.00 0.00 0.00 80 1016.2
20260502054616 41 117 0.0 0.0 0.00 0.00 0.00 80 1016.2
20260502054113 41 132 0.0 0.0 0.00 0.00 0.00 80 1016.1
20260502053610 41 117 0.0 0.0 0.00 0.00 0.00 82 1016.1
20260502053108 41 142 0.0 0.0 0.00 0.00 0.00 81 1016.1
20260502052606 41 138 0.0 0.0 0.00 0.00 0.00 83 1016.1
20260502052104 41 137 0.0 0.0 0.00 0.00 0.00 84 1015.7
20260502051602 41 128 0.0 0.0 0.00 0.00 0.00 84 1015.8
20260502051059 41 137 0.0 0.0 0.00 0.00 0.00 83 1016.0
20260502050555 42 140 0.0 0.0 0.00 0.00 0.00 81 1015.8
20260502050052 42 139 0.0 0.0 0.00 0.00 0.00 77 1015.9
20260502045549 42 138 0.0 0.0 0.00 0.00 0.00 77 1015.7
20260502045046 42 140 0.0 0.0 0.00 0.00 0.00 77 1015.8
20260502044542 42 134 0.0 0.0 0.00 0.00 0.00 79 1015.7
20260502044039 42 132 0.0 0.0 0.00 0.00 0.00 84 1015.7
20260502043537 42 133 0.0 0.0 0.00 0.00 0.00 83 1015.8
20260502043033 43 140 0.0 0.0 0.00 0.00 0.00 80 1015.8
20260502042528 43 140 0.0 0.0 0.00 0.00 0.00 78 1016.0
20260502042025 43 137 0.0 0.0 0.00 0.00 0.00 77 1015.8
20260502041523 43 126 0.0 0.0 0.00 0.00 0.00 76 1015.8
20260502041020 43 128 0.0 0.0 0.00 0.00 0.00 79 1015.7
20260502040517 42 129 0.0 0.0 0.00 0.00 0.00 82 1015.8
20260502040014 42 138 0.0 0.0 0.00 0.09 0.09 85 1015.5
20260502035509 42 136 0.0 0.0 0.00 0.09 0.09 88 1015.6
20260502035007 42 126 0.0 0.0 0.00 0.09 0.09 88 1015.8
20260502034505 43 133 0.0 0.0 0.00 0.09 0.09 86 1015.7
20260502034003 43 140 0.0 0.0 0.00 0.09 0.09 85 1015.8
20260502033501 43 140 0.0 0.0 0.00 0.09 0.09 84 1015.8
20260502032957 44 136 0.0 0.0 0.00 0.09 0.09 83 1016.0
20260502032454 44 140 0.0 0.0 0.00 0.09 0.09 83 1015.8
20260502031950 44 139 0.0 0.0 0.00 0.09 0.09 81 1015.6
20260502031449 44 128 0.0 0.0 0.00 0.09 0.09 82 1015.7
20260502030947 44 127 0.0 0.0 0.00 0.09 0.09 83 1016.1
20260502030445 44 118 0.0 0.0 0.00 0.09 0.09 86 1016.0
20260502025942 44 137 0.0 0.0 0.00 0.09 0.09 88 1016.2
20260502025439 44 138 0.0 0.0 0.00 0.09 0.09 87 1015.9
20260502024937 45 145 0.0 0.0 0.00 0.09 0.09 87 1016.1
20260502024435 45 144 0.0 0.0 0.00 0.09 0.09 86 1015.9
20260502023933 45 129 0.0 0.0 0.00 0.09 0.09 86 1016.0
20260502023430 45 147 0.0 0.0 0.00 0.09 0.09 86 1015.8
20260502022928 45 141 0.0 0.0 0.00 0.09 0.09 86 1015.4
20260502022424 45 141 0.0 0.0 0.00 0.09 0.09 83 1015.4
20260502021921 45 141 0.0 0.0 0.00 0.09 0.09 81 1015.5
20260502021418 45 141 0.0 0.0 0.00 0.09 0.09 82 1015.3
20260502020916 46 140 0.0 0.0 0.00 0.09 0.09 82 1015.4
20260502020414 46 140 0.0 0.0 0.00 0.09 0.09 82 1015.2
20260502015910 46 140 0.0 0.0 0.00 0.09 0.09 81 1015.3
20260502015407 46 140 0.0 0.0 0.00 0.09 0.09 81 1015.1
20260502014904 46 140 0.0 0.0 0.00 0.09 0.09 79 1015.1
20260502014401 46 140 0.0 0.0 0.00 0.09 0.09 78 1015.2
20260502013857 46 140 0.0 0.0 0.00 0.09 0.09 79 1015.0
20260502013352 45 140 0.0 0.0 0.00 0.09 0.09 77 1014.8
20260502012849 46 140 0.0 0.0 0.00 0.09 0.09 79 1014.9
20260502012348 46 137 0.0 0.0 0.00 0.09 0.09 80 1014.6
20260502011844 46 133 0.0 0.0 0.00 0.09 0.09 78 1014.5
20260502011340 46 130 0.0 0.0 0.00 0.09 0.09 76 1014.5
20260502010838 46 129 0.0 0.0 0.00 0.09 0.09 74 1014.3
20260502010334 46 128 0.0 0.0 0.00 0.09 0.09 74 1014.2
20260502005831 46 128 0.0 0.0 0.00 0.09 0.09 74 1014.0
20260502005329 47 128 0.0 0.0 0.00 0.09 0.09 74 1014.3
20260502004826 47 94 0.0 0.0 0.00 0.09 0.09 73 1014.2
20260502004322 47 91 0.0 0.0 0.00 0.09 0.09 73 1014.1
20260502003820 47 89 0.0 0.0 0.00 0.09 0.09 72 1014.0
20260502003317 47 89 0.0 0.0 0.00 0.09 0.09 73 1014.0
20260502002813 48 89 0.0 0.0 0.00 0.09 0.09 73 1014.0
20260502002310 48 89 0.0 0.0 0.00 0.09 0.09 72 1013.8
20260502001808 48 89 0.0 0.0 0.00 0.09 0.09 71 1013.7
20260502001306 48 114 0.0 0.0 0.00 0.09 0.09 71 1013.6
20260502000803 48 112 0.0 0.0 0.00 0.09 0.09 70 1013.6
20260502000302 49 106 0.0 0.0 0.00 0.09 0.09 69 1013.6
20260501235756 49 136 0.0 0.0 0.00 0.09 0.09 68 1013.7
20260501235252 49 130 0.0 0.0 0.00 0.09 0.09 68 1013.5
20260501234748 49 125 0.0 0.0 0.00 0.09 0.09 67 1013.6
20260501234245 49 133 0.0 0.0 0.00 0.09 0.09 67 1013.4
20260501233743 49 125 0.0 0.0 0.00 0.09 0.09 66 1013.7
20260501233241 49 94 0.0 0.0 0.00 0.09 0.09 68 1013.7
20260501232736 49 62 0.0 0.0 0.00 0.09 0.09 65 1013.9
20260501232233 49 88 0.0 0.0 0.00 0.09 0.09 66 1013.9
20260501231731 50 25 0.0 0.0 0.00 0.09 0.09 64 1013.9
20260501231229 50 84 0.0 0.0 0.00 0.09 0.09 67 1013.6
20260501230727 50 174 0.0 0.0 0.00 0.09 0.09 69 1013.8
20260501230226 50 128 0.0 0.0 0.00 0.09 0.09 67 1013.7
20260501225723 50 76 0.0 0.0 0.00 0.09 0.09 68 1014.0
20260501225220 50 70 0.0 0.0 0.00 0.09 0.09 66 1013.7
20260501224715 50 189 0.0 0.0 0.00 0.09 0.09 67 1014.1
20260501224213 50 90 0.0 0.0 0.00 0.09 0.09 68 1013.9
20260501223709 50 44 0.0 0.0 0.00 0.09 0.09 66 1013.9
20260501223206 50 124 0.0 0.0 0.00 0.09 0.09 70 1014.1
20260501222702 50 55 0.0 0.0 0.00 0.09 0.09 69 1014.2
20260501222159 50 51 0.0 0.0 0.00 0.09 0.09 72 1014.1
20260501221656 50 95 0.0 0.0 0.00 0.09 0.09 69 1014.3
20260501221153 50 27 1.0 3.0 0.00 0.09 0.09 67 1014.2
20260501220651 50 90 0.0 0.0 0.00 0.09 0.09 69 1014.2